Location: *
(11.7485°N, 79.7483°E)
Time: 01:39:13
(UTC+00:00)

SMAP - Pass Details

Date: 22 January 2021
Orbit: 682 x 683 km, 98.1° (Epoch: 05 March)

Event Time Altitude Azimuth Distance (km) Brightness Sun altitude
Rises 00:18:48 0° 21° (NNE) 3,032 6.5 -11.8°
Reaches altitude 10° 00:21:07 10° 28° (NNE) 2,117 5.7 -11.2°
Maximum altitude 00:25:33 46° 101° (E) 912 4.3 -10.2°
Drops below altitude 10° 00:29:59 10° 174° (S) 2,116 5.9 -9.2°
Sets 00:32:17 0° 180° (S) 3,031 6.7 -8.6°
